TimeCST,TemperatureF,Dew PointF,Humidity,Sea Level PressureIn,VisibilityMPH,Wind Direction,Wind SpeedMPH,Gust SpeedMPH,PrecipitationIn,Events,Conditions,WindDirDegrees,DateUTC
12:15 AM,53.6,35.6,51,30.05,10.0,SE,8.1,-,N/A,,Clear,140,2012-11-08 06:15:00
12:35 AM,55.4,35.6,47,30.04,10.0,SE,9.2,-,N/A,,Clear,140,2012-11-08 06:35:00
12:55 AM,55.4,35.6,47,30.04,10.0,SE,9.2,-,N/A,,Clear,140,2012-11-08 06:55:00
1:15 AM,55.4,37.4,51,30.04,10.0,SE,10.4,-,N/A,,Clear,140,2012-11-08 07:15:00
1:35 AM,53.6,37.4,54,30.04,10.0,SE,9.2,-,N/A,,Clear,140,2012-11-08 07:35:00
1:55 AM,55.4,37.4,51,30.04,10.0,SE,10.4,-,N/A,,Clear,140,2012-11-08 07:55:00
2:15 AM,55.4,37.4,51,30.03,10.0,SE,10.4,-,N/A,,Clear,140,2012-11-08 08:15:00
2:35 AM,55.4,37.4,51,30.03,10.0,SSE,10.4,-,N/A,,Clear,150,2012-11-08 08:35:00
2:55 AM,55.4,37.4,51,30.03,10.0,SSE,10.4,-,N/A,,Clear,150,2012-11-08 08:55:00
3:15 AM,55.4,37.4,51,30.02,10.0,SSE,12.7,-,N/A,,Clear,150,2012-11-08 09:15:00
3:35 AM,55.4,37.4,51,30.02,10.0,SE,11.5,-,N/A,,Clear,140,2012-11-08 09:35:00
3:55 AM,55.4,37.4,51,30.02,10.0,SSE,11.5,-,N/A,,Clear,150,2012-11-08 09:55:00
4:15 AM,55.4,37.4,51,30.02,10.0,SSE,11.5,16.1,N/A,,Clear,150,2012-11-08 10:15:00
4:35 AM,53.6,37.4,54,30.03,10.0,SSE,10.4,-,N/A,,Clear,150,2012-11-08 10:35:00
4:55 AM,53.6,39.2,58,30.03,10.0,SE,10.4,-,N/A,,Clear,140,2012-11-08 10:55:00
5:15 AM,53.6,39.2,58,30.03,10.0,SE,10.4,-,N/A,,Clear,140,2012-11-08 11:15:00
5:35 AM,53.6,39.2,58,30.02,10.0,SE,11.5,-,N/A,,Clear,140,2012-11-08 11:35:00
5:55 AM,53.6,39.2,58,30.02,10.0,SE,11.5,-,N/A,,Clear,140,2012-11-08 11:55:00
6:15 AM,53.6,39.2,58,30.02,10.0,SE,10.4,-,N/A,,Clear,140,2012-11-08 12:15:00
6:35 AM,53.6,41.0,62,30.02,10.0,SE,11.5,-,N/A,,Clear,140,2012-11-08 12:35:00
6:55 AM,53.6,41.0,62,30.02,10.0,ESE,8.1,-,N/A,,Clear,120,2012-11-08 12:55:00
7:15 AM,53.6,41.0,62,30.02,10.0,SE,9.2,-,N/A,,Clear,130,2012-11-08 13:15:00
7:35 AM,53.6,41.0,62,30.03,10.0,SE,10.4,-,N/A,,Clear,140,2012-11-08 13:35:00
7:55 AM,55.4,41.0,58,30.03,10.0,SE,11.5,-,N/A,,Clear,140,2012-11-08 13:55:00
8:15 AM,57.2,41.0,55,30.04,10.0,SSE,12.7,-,N/A,,Clear,150,2012-11-08 14:15:00
8:35 AM,59.0,42.8,55,30.03,10.0,SSE,13.8,19.6,N/A,,Clear,150,2012-11-08 14:35:00
8:55 AM,60.8,42.8,52,30.03,10.0,SSE,16.1,23.0,N/A,,Clear,160,2012-11-08 14:55:00
9:15 AM,62.6,44.6,52,30.03,10.0,SSE,15.0,20.7,N/A,,Clear,160,2012-11-08 15:15:00
9:35 AM,64.4,44.6,49,30.03,10.0,South,13.8,-,N/A,,Clear,170,2012-11-08 15:35:00
9:55 AM,68.0,46.4,46,30.02,10.0,South,17.3,-,N/A,,Clear,170,2012-11-08 15:55:00
10:15 AM,68.0,48.2,49,30.02,10.0,South,15.0,24.2,N/A,,Clear,180,2012-11-08 16:15:00
10:35 AM,69.8,50.0,49,30.01,10.0,South,18.4,-,N/A,,Clear,180,2012-11-08 16:35:00
10:55 AM,71.6,50.0,46,30.00,10.0,South,20.7,-,N/A,,Clear,190,2012-11-08 16:55:00
11:15 AM,73.4,50.0,44,29.99,10.0,South,17.3,25.3,N/A,,Clear,180,2012-11-08 17:15:00
11:35 AM,73.4,51.8,47,29.98,10.0,South,17.3,26.5,N/A,,Clear,180,2012-11-08 17:35:00
11:55 AM,75.2,51.8,44,29.97,10.0,South,19.6,-,N/A,,Clear,190,2012-11-08 17:55:00
12:15 PM,77.0,51.8,41,29.95,10.0,South,20.7,24.2,N/A,,Clear,180,2012-11-08 18:15:00
12:35 PM,77.0,51.8,41,29.94,10.0,South,18.4,24.2,N/A,,Clear,180,2012-11-08 18:35:00
12:55 PM,78.8,51.8,39,29.92,10.0,South,19.6,25.3,N/A,,Clear,180,2012-11-08 18:55:00
1:15 PM,78.8,51.8,39,29.91,10.0,South,18.4,25.3,N/A,,Clear,170,2012-11-08 19:15:00
1:35 PM,80.6,53.6,39,29.90,10.0,South,23.0,27.6,N/A,,Clear,180,2012-11-08 19:35:00
1:55 PM,80.6,51.8,37,29.89,10.0,South,20.7,26.5,N/A,,Clear,190,2012-11-08 19:55:00
2:15 PM,80.6,53.6,39,29.89,10.0,South,17.3,25.3,N/A,,Clear,190,2012-11-08 20:15:00
2:35 PM,80.6,51.8,37,29.89,10.0,SSW,18.4,25.3,N/A,,Clear,200,2012-11-08 20:35:00
2:55 PM,80.6,51.8,37,29.88,10.0,South,20.7,28.8,N/A,,Clear,180,2012-11-08 20:55:00
3:15 PM,78.8,51.8,39,29.87,10.0,South,21.9,26.5,N/A,,Clear,180,2012-11-08 21:15:00
3:35 PM,78.8,51.8,39,29.87,10.0,South,18.4,24.2,N/A,,Clear,170,2012-11-08 21:35:00
3:55 PM,80.6,51.8,37,29.87,10.0,South,17.3,23.0,N/A,,Clear,170,2012-11-08 21:55:00
4:15 PM,78.8,51.8,39,29.87,10.0,South,16.1,23.0,N/A,,Clear,170,2012-11-08 22:15:00
4:35 PM,78.8,51.8,39,29.87,10.0,South,16.1,-,N/A,,Clear,170,2012-11-08 22:35:00
4:55 PM,77.0,51.8,41,29.87,10.0,South,15.0,-,N/A,,Clear,170,2012-11-08 22:55:00
5:15 PM,77.0,51.8,41,29.87,10.0,South,13.8,19.6,N/A,,Clear,170,2012-11-08 23:15:00
5:35 PM,77.0,51.8,41,29.87,10.0,South,11.5,-,N/A,,Clear,170,2012-11-08 23:35:00
5:55 PM,75.2,53.6,47,29.88,10.0,SSE,6.9,-,N/A,,Clear,160,2012-11-08 23:55:00
6:15 PM,73.4,53.6,50,29.88,10.0,SSE,11.5,-,N/A,,Clear,150,2012-11-09 00:15:00
6:35 PM,73.4,53.6,50,29.88,10.0,SSE,16.1,20.7,N/A,,Clear,160,2012-11-09 00:35:00
6:55 PM,73.4,53.6,50,29.89,10.0,SSE,15.0,-,N/A,,Clear,160,2012-11-09 00:55:00
7:15 PM,73.4,53.6,50,29.89,10.0,SSE,12.7,-,N/A,,Clear,160,2012-11-09 01:15:00
7:35 PM,71.6,55.4,57,29.89,10.0,South,15.0,-,N/A,,Clear,170,2012-11-09 01:35:00
7:55 PM,71.6,55.4,57,29.89,10.0,SSE,16.1,-,N/A,,Clear,160,2012-11-09 01:55:00
8:15 PM,71.6,53.6,53,29.89,10.0,SSE,16.1,-,N/A,,Clear,160,2012-11-09 02:15:00
8:35 PM,71.6,53.6,53,29.90,10.0,SSE,13.8,19.6,N/A,,Clear,160,2012-11-09 02:35:00
8:55 PM,71.6,53.6,53,29.90,10.0,South,13.8,-,N/A,,Clear,170,2012-11-09 02:55:00
9:15 PM,71.6,53.6,53,29.90,10.0,South,15.0,19.6,N/A,,Clear,170,2012-11-09 03:15:00
9:35 PM,71.6,51.8,50,29.90,10.0,South,17.3,20.7,N/A,,Clear,170,2012-11-09 03:35:00
9:55 PM,69.8,51.8,53,29.91,10.0,South,12.7,-,N/A,,Clear,170,2012-11-09 03:55:00
10:15 PM,69.8,51.8,53,29.91,10.0,South,15.0,20.7,N/A,,Clear,170,2012-11-09 04:15:00
10:35 PM,69.8,51.8,53,29.91,10.0,South,13.8,-,N/A,,Clear,170,2012-11-09 04:35:00
10:55 PM,69.8,51.8,53,29.92,10.0,South,13.8,19.6,N/A,,Clear,170,2012-11-09 04:55:00
11:15 PM,68.0,51.8,56,29.92,10.0,South,12.7,19.6,N/A,,Clear,170,2012-11-09 05:15:00
11:35 PM,68.0,51.8,56,29.91,10.0,South,13.8,-,N/A,,Clear,170,2012-11-09 05:35:00
11:55 PM,68.0,51.8,56,29.92,10.0,South,13.8,-,N/A,,Clear,170,2012-11-09 05:55:00